AUA27 LOWI-LOWW

Flight info

Callsign AUA27
Flight time 0h 34m
Altitude 27000
Route RTT2Q RTT DCT NEMAL NEMAL2W
Aircraft A20N/M-SDE2E3FGHIRWXY/LB1

Departure

Time 2026-05-06 10:15
Airport Innsbruck Airport (LOWI)

Arrival

Time 2026-05-06 10:49
Airport Vienna International Airport (LOWW)
Time Latitude Longitude Altitude Speed Heading
2026-05-06 09:49 47.25800 11.34809 1892 ft 0 kts 170°
2026-05-06 09:59 47.25801 11.34809 1899 ft 2 kts 170°
2026-05-06 09:59 47.25821 11.34805 1887 ft 3 kts 178°
2026-05-06 09:59 47.25841 11.34808 1887 ft 3 kts 195°
2026-05-06 09:59 47.25852 11.34824 1890 ft 3 kts 262°
2026-05-06 10:00 47.25852 11.34826 1898 ft 0 kts 262°
2026-05-06 10:00 47.25852 11.34820 1898 ft 6 kts 262°
2026-05-06 10:00 47.25830 11.34624 1898 ft 23 kts 261°
2026-05-06 10:00 47.25804 11.34384 1888 ft 25 kts 261°
2026-05-06 10:01 47.25780 11.34154 1893 ft 18 kts 260°
2026-05-06 10:01 47.25775 11.33969 1896 ft 15 kts 283°
2026-05-06 10:01 47.25807 11.33882 1892 ft 5 kts 306°
2026-05-06 10:01 47.25811 11.33874 1893 ft 0 kts 306°
2026-05-06 10:03 47.25845 11.33806 1893 ft 14 kts 306°
2026-05-06 10:03 47.25870 11.33757 1893 ft 0 kts 307°
2026-05-06 10:13 47.25871 11.33754 1903 ft 1 kts 307°
2026-05-06 10:13 47.25905 11.33687 1898 ft 20 kts 306°
2026-05-06 10:13 47.25914 11.33474 1901 ft 24 kts 258°
2026-05-06 10:14 47.25887 11.33240 1898 ft 18 kts 252°
2026-05-06 10:14 47.25851 11.33130 1891 ft 7 kts 306°
2026-05-06 10:14 47.25881 11.33150 1891 ft 8 kts 54°
2026-05-06 10:14 47.25888 11.33177 1897 ft 0 kts 75°
2026-05-06 10:15 47.25901 11.33271 1899 ft 41 kts 81°
2026-05-06 10:15 47.25985 11.34094 1901 ft 118 kts 81°
2026-05-06 10:15 47.26139 11.35511 2214 ft 150 kts 84°
2026-05-06 10:15 47.26326 11.37076 2987 ft 163 kts 82°
2026-05-06 10:16 47.26556 11.38753 3817 ft 168 kts 81°
2026-05-06 10:16 47.26796 11.40479 4529 ft 177 kts 82°
2026-05-06 10:16 47.27036 11.42298 5219 ft 186 kts 83°
2026-05-06 10:16 47.27295 11.44258 5740 ft 204 kts 82°
2026-05-06 10:17 47.27675 11.46303 6509 ft 206 kts 78°
2026-05-06 10:17 47.28069 11.48338 7295 ft 207 kts 78°
2026-05-06 10:17 47.28464 11.50401 8000 ft 211 kts 79°
2026-05-06 10:17 47.28856 11.52465 8720 ft 215 kts 80°
2026-05-06 10:18 47.29262 11.54623 9422 ft 220 kts 79°
2026-05-06 10:18 47.29671 11.56795 10176 ft 220 kts 79°
2026-05-06 10:18 47.30084 11.58992 10819 ft 225 kts 80°
2026-05-06 10:18 47.30506 11.61241 11439 ft 230 kts 81°
2026-05-06 10:19 47.30944 11.63537 12060 ft 236 kts 78°
2026-05-06 10:19 47.31633 11.65780 12666 ft 246 kts 63°
2026-05-06 10:19 47.32636 11.67893 13165 ft 260 kts 59°
2026-05-06 10:19 47.33704 11.70119 13439 ft 280 kts 58°
2026-05-06 10:20 47.34865 11.72559 13665 ft 302 kts 58°
2026-05-06 10:20 47.36106 11.75175 13937 ft 320 kts 58°
2026-05-06 10:20 47.37424 11.77962 14130 ft 342 kts 57°
2026-05-06 10:20 47.38827 11.80929 14331 ft 363 kts 58°
2026-05-06 10:21 47.40136 11.84206 14537 ft 379 kts 68°
2026-05-06 10:21 47.41226 11.87819 15043 ft 390 kts 69°
2026-05-06 10:21 47.42347 11.91520 15635 ft 396 kts 69°
2026-05-06 10:21 47.43483 11.95240 16355 ft 399 kts 68°
2026-05-06 10:22 47.44649 11.98920 16949 ft 403 kts 68°
2026-05-06 10:22 47.45864 12.02680 17550 ft 409 kts 67°
2026-05-06 10:22 47.47104 12.06494 18075 ft 414 kts 67°
2026-05-06 10:22 47.48348 12.10331 18731 ft 412 kts 68°
2026-05-06 10:23 47.49588 12.14185 19254 ft 419 kts 68°
2026-05-06 10:23 47.50842 12.18106 19788 ft 424 kts 68°
2026-05-06 10:23 47.53875 12.27624 21144 ft 433 kts 68°
2026-05-06 10:23 47.59076 12.44066 23365 ft 449 kts 69°
2026-05-06 10:24 47.64441 12.61058 25160 ft 463 kts 69°
2026-05-06 10:24 47.69930 12.78610 26711 ft 476 kts 69°
2026-05-06 10:24 47.75420 12.96284 26800 ft 477 kts 69°
2026-05-06 10:24 47.80957 13.14238 26780 ft 478 kts 69°
2026-05-06 10:25 47.86468 13.32243 26784 ft 479 kts 69°
2026-05-06 10:25 47.91427 13.50537 26796 ft 471 kts 84°
2026-05-06 10:25 47.91708 13.69745 26800 ft 464 kts 96°
2026-05-06 10:25 47.91680 13.76637 26799 ft 464 kts 96°
2026-05-06 10:26 47.91655 13.81442 26802 ft 464 kts 96°
2026-05-06 10:26 47.91626 13.86244 26802 ft 464 kts 96°
2026-05-06 10:26 47.91554 13.96578 26805 ft 464 kts 96°
2026-05-06 10:26 47.91395 14.15809 26447 ft 463 kts 96°
2026-05-06 10:27 47.91207 14.34897 24817 ft 458 kts 96°
2026-05-06 10:27 47.90998 14.53342 22635 ft 441 kts 96°
2026-05-06 10:27 47.90762 14.71158 20552 ft 420 kts 95°
2026-05-06 10:27 47.90506 14.88243 18537 ft 405 kts 95°
2026-05-06 10:28 47.90265 15.03130 16716 ft 389 kts 94°
2026-05-06 10:28 47.90199 15.07134 16235 ft 384 kts 94°
2026-05-06 10:28 47.90131 15.11091 15762 ft 381 kts 94°
2026-05-06 10:28 47.90062 15.15021 15287 ft 378 kts 95°
2026-05-06 10:29 47.89994 15.18908 14804 ft 374 kts 95°
2026-05-06 10:29 47.89923 15.22767 14349 ft 370 kts 95°
2026-05-06 10:29 47.89921 15.26526 13944 ft 367 kts 89°
2026-05-06 10:29 47.90177 15.30336 13700 ft 373 kts 85°
2026-05-06 10:30 47.90516 15.34177 13448 ft 374 kts 85°
2026-05-06 10:30 47.90847 15.38013 13191 ft 371 kts 86°
2026-05-06 10:30 47.91150 15.41824 12914 ft 369 kts 86°
2026-05-06 10:30 47.91757 15.50537 12820 ft 373 kts 87°
2026-05-06 10:31 47.92810 15.65902 12814 ft 374 kts 87°
2026-05-06 10:31 47.93273 15.72941 12824 ft 371 kts 87°
2026-05-06 10:31 47.93536 15.76783 12792 ft 375 kts 87°
2026-05-06 10:31 47.93791 15.80677 12559 ft 377 kts 87°
2026-05-06 10:32 47.94119 15.85789 12220 ft 370 kts 87°
2026-05-06 10:32 47.94365 15.89605 11955 ft 370 kts 87°
2026-05-06 10:32 47.94611 15.93424 11703 ft 369 kts 86°
2026-05-06 10:32 47.95132 15.97167 11453 ft 369 kts 76°
2026-05-06 10:33 47.95916 16.00829 11214 ft 372 kts 73°
2026-05-06 10:33 47.96469 16.03252 11054 ft 373 kts 73°
2026-05-06 10:33 47.97296 16.06916 10794 ft 370 kts 73°
2026-05-06 10:33 47.98336 16.11742 10492 ft 368 kts 74°
2026-05-06 10:34 47.99089 16.15339 10399 ft 358 kts 75°
2026-05-06 10:34 47.99811 16.18823 10279 ft 344 kts 75°
2026-05-06 10:34 48.00279 16.21099 10195 ft 335 kts 75°
2026-05-06 10:34 48.00942 16.24336 10004 ft 326 kts 75°
2026-05-06 10:35 48.01598 16.27557 9721 ft 320 kts 75°
2026-05-06 10:35 48.02237 16.30698 9581 ft 316 kts 75°
2026-05-06 10:35 48.02875 16.33844 9461 ft 316 kts 75°
2026-05-06 10:35 48.03511 16.36978 9320 ft 314 kts 75°
2026-05-06 10:36 48.04143 16.40101 9187 ft 313 kts 75°
2026-05-06 10:36 48.04772 16.43209 9085 ft 312 kts 75°
2026-05-06 10:36 48.05399 16.46308 8958 ft 311 kts 75°
2026-05-06 10:36 48.06013 16.49352 8831 ft 309 kts 75°
2026-05-06 10:37 48.06782 16.52342 8693 ft 310 kts 59°
2026-05-06 10:37 48.08237 16.54699 8570 ft 310 kts 33°
2026-05-06 10:37 48.10190 16.55955 8450 ft 305 kts
2026-05-06 10:37 48.12291 16.56300 8353 ft 302 kts
2026-05-06 10:38 48.14357 16.56449 8270 ft 292 kts
2026-05-06 10:38 48.16349 16.56645 8150 ft 282 kts
2026-05-06 10:38 48.18272 16.56923 8007 ft 273 kts
2026-05-06 10:38 48.20130 16.57255 7813 ft 264 kts
2026-05-06 10:39 48.21939 16.57612 7691 ft 269 kts
2026-05-06 10:39 48.23794 16.57992 7547 ft 269 kts
2026-05-06 10:39 48.25653 16.58378 7237 ft 269 kts
2026-05-06 10:39 48.27505 16.58765 6868 ft 268 kts
2026-05-06 10:40 48.29344 16.59141 6503 ft 266 kts
2026-05-06 10:40 48.31169 16.59511 6138 ft 264 kts
2026-05-06 10:40 48.32978 16.59887 5768 ft 261 kts
2026-05-06 10:40 48.34770 16.60263 5381 ft 259 kts
2026-05-06 10:41 48.36555 16.60292 5088 ft 254 kts 351°
2026-05-06 10:41 48.38190 16.59638 4992 ft 240 kts 330°
2026-05-06 10:41 48.39364 16.58069 4989 ft 220 kts 295°
2026-05-06 10:41 48.39726 16.55947 4993 ft 206 kts 262°
2026-05-06 10:42 48.39502 16.53828 4983 ft 204 kts 254°
2026-05-06 10:42 48.38901 16.51967 4997 ft 199 kts 227°
2026-05-06 10:42 48.38001 16.50393 4984 ft 199 kts 225°
2026-05-06 10:42 48.37047 16.48939 4982 ft 188 kts 211°
2026-05-06 10:43 48.35879 16.48262 4990 ft 180 kts 186°
2026-05-06 10:43 48.34614 16.48301 4985 ft 184 kts 171°
2026-05-06 10:43 48.33388 16.48704 4873 ft 183 kts 165°
2026-05-06 10:44 48.31036 16.49708 4415 ft 169 kts 163°
2026-05-06 10:44 48.29889 16.50197 4196 ft 172 kts 163°
2026-05-06 10:44 48.28747 16.50685 3967 ft 169 kts 163°
2026-05-06 10:44 48.27637 16.51160 3741 ft 166 kts 165°
2026-05-06 10:45 48.26504 16.51642 3518 ft 170 kts 164°
2026-05-06 10:45 48.25377 16.52122 3297 ft 168 kts 164°
2026-05-06 10:45 48.24263 16.52597 3083 ft 169 kts 164°
2026-05-06 10:45 48.23140 16.53075 2858 ft 167 kts 163°
2026-05-06 10:46 48.22042 16.53542 2633 ft 161 kts 162°
2026-05-06 10:46 48.21016 16.53978 2422 ft 146 kts 162°
2026-05-06 10:46 48.20074 16.54381 2255 ft 135 kts 162°
2026-05-06 10:46 48.19197 16.54752 2075 ft 128 kts 162°
2026-05-06 10:47 48.18328 16.55123 1903 ft 129 kts 162°
2026-05-06 10:47 48.17489 16.55479 1712 ft 125 kts 161°
2026-05-06 10:47 48.16658 16.55851 1528 ft 126 kts 162°
2026-05-06 10:47 48.15797 16.56234 1371 ft 130 kts 163°
2026-05-06 10:48 48.14936 16.56582 1187 ft 127 kts 163°
2026-05-06 10:48 48.14101 16.56930 1030 ft 121 kts 165°
2026-05-06 10:48 48.13293 16.57273 890 ft 123 kts 163°
2026-05-06 10:48 48.12482 16.57611 732 ft 120 kts 162°
2026-05-06 10:49 48.11663 16.57955 634 ft 123 kts 162°
2026-05-06 10:49 48.10897 16.58278 615 ft 101 kts 166°
2026-05-06 10:49 48.10418 16.58467 610 ft 52 kts 177°
2026-05-06 10:49 48.10208 16.58429 618 ft 21 kts 191°
2026-05-06 10:50 48.10163 16.58406 610 ft 2 kts 203°
2026-05-06 10:50 48.10155 16.58400 610 ft 0 kts 206°
2026-05-06 10:51 48.10154 16.58399 610 ft 0 kts 206°
2026-05-06 10:51 48.10148 16.58392 610 ft 6 kts 218°
2026-05-06 10:51 48.10158 16.58314 613 ft 12 kts 327°
2026-05-06 10:51 48.10174 16.58305 616 ft 7 kts 339°
2026-05-06 10:52 48.10194 16.58294 620 ft 9 kts 342°
2026-05-06 10:52 48.10279 16.58257 618 ft 16 kts 344°
2026-05-06 10:52 48.10398 16.58206 616 ft 20 kts 344°
2026-05-06 10:53 48.10539 16.58146 621 ft 22 kts 344°
2026-05-06 10:53 48.10698 16.58079 621 ft 25 kts 343°
2026-05-06 10:53 48.10873 16.58005 619 ft 27 kts 344°
2026-05-06 10:53 48.11038 16.57933 615 ft 21 kts 345°
2026-05-06 10:54 48.11126 16.57810 616 ft 18 kts 297°
2026-05-06 10:54 48.11185 16.57631 619 ft 21 kts 296°
2026-05-06 10:54 48.11251 16.57428 618 ft 20 kts 298°
2026-05-06 10:54 48.11343 16.57350 610 ft 17 kts 23°
2026-05-06 10:55 48.11431 16.57354 613 ft 12 kts 300°
2026-05-06 10:55 48.11477 16.57230 617 ft 15 kts 295°
2026-05-06 10:55 48.11528 16.57074 612 ft 18 kts 295°
2026-05-06 10:55 48.11581 16.56912 618 ft 15 kts 296°
2026-05-06 10:56 48.11628 16.56866 612 ft 9 kts 17°
2026-05-06 10:56 48.11673 16.56898 618 ft 0 kts 27°